Overview Statistics Trail Chart Weather Telemetry Raw packets
 

This is the latest recevied weather packets stored in our database for station/object F1ZTH-10. If no packets are shown the sender has not sent any weather packets the latest 10 day(s).

<< 29 30 31 32 33 34 35 >>
Time Temp. Humidity Pressure Rain* Wind** Luminosity Snow
1788012376 32.22° C 38% 977 hPa - - - -
1788011476 31.67° C 39% 977 hPa - - - -
1788010576 30.56° C 40% 977 hPa - - - -
1788009676 30.56° C 38% 977 hPa - - - -
1788008776 30° C 41% 978 hPa - - - -
1788007876 30° C 41% 978 hPa - - - -
1788006976 30° C 40% 978 hPa - - - -
1788006076 30.56° C 42% 978 hPa - - - -
1788005176 30.56° C 42% 978 hPa - - - -
1788004276 29.44° C 44% 978 hPa - - - -
1788003376 30.56° C 43% 978 hPa - - - -
1788002475 30° C 43% 978 hPa - - - -
1788001576 29.44° C 44% 978 hPa - - - -
1788000675 30° C 44% 978 hPa - - - -
1787999775 28.33° C 46% 978 hPa - - - -
1787998875 29.44° C 47% 979 hPa - - - -
1787997975 30° C 47% 979 hPa - - - -
1787997075 30.56° C 48% 979 hPa - - - -
1787996175 30° C 49% 979 hPa - - - -
1787995275 30° C 51% 979 hPa - - - -
1787994375 28.89° C 53% 979 hPa - - - -
1787993474 28.89° C 55% 979 hPa - - - -
1787992574 27.78° C 57% 979 hPa - - - -
1787991674 27.22° C 59% 979 hPa - - - -
1787990774 26.11° C 60% 979 hPa - - - -

* Rain since midnight (hover to see other rain measurements)
** Current wind speed in m/s (hover to see current wind gust speed)